Data No,UTC Date,UTC Time,Latitude,Longitude,Course(deg),Temp(degC),Sal(psu),Fluor Int,Blank
102,2005/1/24,15:40:00, 11-00.702N,100-00.166E,111.6,28.35,31.6813,180,161
103,2005/1/24,15:41:00, 11-00.624N,100-00.369E,112.2,28.345,31.6829,176,161
104,2005/1/24,15:42:00, 11-00.547N,100-00.569E,112.7,28.34,31.6837,173,161
105,2005/1/24,15:43:00, 11-00.466N,100-00.770E,113.3,28.344,31.6835,173,161
106,2005/1/24,15:44:00, 11-00.381N,100-00.973E,113.5,28.343,31.6842,178,161
107,2005/1/24,15:45:00, 11-00.297N,100-01.172E,114.6,28.341,31.6847,180,161
108,2005/1/24,15:46:00, 11-00.210N,100-01.370E,112.7,28.339,31.6843,175,161
109,2005/1/24,15:47:00, 11-00.115N,100-01.564E,118,28.331,31.6839,176,161
110,2005/1/24,15:48:00, 11-00.015N,100-01.755E,117,28.329,31.6832,174,161
111,2005/1/24,15:49:00, 10-59.917N,100-01.947E,116.3,28.325,31.6839,172,161
112,2005/1/24,15:50:00, 10-59.820N,100-02.141E,116.9,28.318,31.6837,175,161
113,2005/1/24,15:51:00, 10-59.723N,100-02.333E,116.8,28.314,31.6834,174,161
114,2005/1/24,15:52:00, 10-59.625N,100-02.526E,116.8,28.308,31.6825,175,161
115,2005/1/24,15:53:00, 10-59.527N,100-02.719E,117.7,28.307,31.6815,174,161
116,2005/1/24,15:54:00, 10-59.430N,100-02.913E,117.8,28.308,31.6808,174,161
117,2005/1/24,15:55:00, 10-59.333N,100-03.105E,117.4,28.304,31.681,175,161
118,2005/1/24,15:56:00, 10-59.236N,100-03.298E,118.1,28.302,31.6817,176,161
119,2005/1/24,15:57:00, 10-59.138N,100-03.491E,117.5,28.301,31.6816,175,161
120,2005/1/24,15:58:00, 10-59.040N,100-03.684E,116.6,28.298,31.6837,175,161
121,2005/1/24,15:59:00, 10-58.941N,100-03.876E,116.9,28.295,31.6846,173,161
122,2005/1/24,16:00:00, 10-58.843N,100-04.069E,117.3,28.293,31.685,174,161
123,2005/1/24,16:01:00, 10-58.746N,100-04.262E,115.5,28.291,31.6856,177,161
124,2005/1/24,16:02:00, 10-58.639N,100-04.449E,120,28.293,31.6861,175,161
125,2005/1/24,16:03:00, 10-58.529N,100-04.635E,119.3,28.292,31.6871,175,161
126,2005/1/24,16:04:00, 10-58.420N,100-04.820E,120.5,28.295,31.6873,174,161
127,2005/1/24,16:05:00, 10-58.311N,100-05.005E,120.9,28.297,31.6876,174,161
128,2005/1/24,16:06:00, 10-58.202N,100-05.190E,121.2,28.295,31.6886,174,161
129,2005/1/24,16:07:00, 10-58.093N,100-05.375E,119.2,28.29,31.6894,173,161
130,2005/1/24,16:08:00, 10-57.984N,100-05.561E,121,28.289,31.6896,171,161
131,2005/1/24,16:09:00, 10-57.874N,100-05.745E,119,28.287,31.6897,174,161
132,2005/1/24,16:10:00, 10-57.762N,100-05.931E,120.5,28.287,31.6903,174,161
133,2005/1/24,16:11:00, 10-57.654N,100-06.116E,120.4,28.292,31.6914,172,161
134,2005/1/24,16:12:00, 10-57.546N,100-06.301E,120.4,28.305,31.6944,173,161
135,2005/1/24,16:13:00, 10-57.436N,100-06.487E,120.1,28.317,31.6994,172,161
136,2005/1/24,16:14:00, 10-57.326N,100-06.671E,119.4,28.334,31.7077,172,161
137,2005/1/24,16:15:00, 10-57.218N,100-06.859E,119.7,28.369,31.7171,177,161
138,2005/1/24,16:16:00, 10-57.108N,100-07.045E,119.3,28.414,31.729,174,161
139,2005/1/24,16:17:00, 10-57.000N,100-07.232E,120.9,28.465,31.7477,171,161
140,2005/1/24,16:18:00, 10-56.891N,100-07.419E,120.7,28.5,31.7708,177,161
141,2005/1/24,16:19:00, 10-56.780N,100-07.606E,119.5,28.497,31.7942,174,161
142,2005/1/24,16:20:00, 10-56.674N,100-07.793E,119,28.486,31.8041,172,161
143,2005/1/24,16:21:00, 10-56.566N,100-07.981E,120.8,28.486,31.7976,174,161
144,2005/1/24,16:22:00, 10-56.456N,100-08.168E,121.4,28.49,31.7936,176,161
145,2005/1/24,16:23:00, 10-56.348N,100-08.353E,120.6,28.49,31.7948,175,161
146,2005/1/24,16:24:00, 10-56.241N,100-08.539E,120.7,28.49,31.7983,183,161
147,2005/1/24,16:25:00, 10-56.134N,100-08.725E,120.7,28.497,31.7993,163,161
148,2005/1/24,16:26:00, 10-56.025N,100-08.910E,120.5,28.51,31.7997,175,161
149,2005/1/24,16:27:00, 10-55.920N,100-09.096E,121.5,28.525,31.8048,174,161
150,2005/1/24,16:28:00, 10-55.813N,100-09.282E,120.6,28.539,31.8128,176,161
151,2005/1/24,16:29:00, 10-55.706N,100-09.468E,119,28.555,31.8202,178,161
152,2005/1/24,16:30:00, 10-55.596N,100-09.652E,120.1,28.566,31.8285,174,161
153,2005/1/24,16:31:00, 10-55.489N,100-09.838E,120.7,28.568,31.8365,173,161
154,2005/1/24,16:32:00, 10-55.381N,100-10.023E,119,28.573,31.8412,175,161
155,2005/1/24,16:33:00, 10-55.273N,100-10.209E,119.8,28.575,31.8445,178,161
156,2005/1/24,16:34:00, 10-55.164N,100-10.394E,120.8,28.58,31.8469,174,161
157,2005/1/24,16:35:00, 10-55.055N,100-10.579E,119.2,28.586,31.8498,175,161
158,2005/1/24,16:36:00, 10-54.949N,100-10.764E,118.9,28.587,31.8516,175,161
159,2005/1/24,16:37:00, 10-54.841N,100-10.949E,119.4,28.591,31.8535,173,161
160,2005/1/24,16:38:00, 10-54.733N,100-11.135E,119.7,28.596,31.8547,170,161
161,2005/1/24,16:39:00, 10-54.625N,100-11.321E,119.9,28.596,31.8568,173,161
162,2005/1/24,16:40:00, 10-54.518N,100-11.506E,118.5,28.599,31.8582,176,161
163,2005/1/24,16:41:00, 10-54.410N,100-11.689E,119.7,28.598,31.8595,177,161
164,2005/1/24,16:42:00, 10-54.299N,100-11.873E,120.9,28.595,31.8599,176,161
165,2005/1/24,16:43:00, 10-54.191N,100-12.057E,121.8,28.594,31.8603,174,161
166,2005/1/24,16:44:00, 10-54.083N,100-12.242E,120.9,28.592,31.861,177,161
167,2005/1/24,16:45:00, 10-53.974N,100-12.427E,121.1,28.595,31.8607,175,161
168,2005/1/24,16:46:00, 10-53.867N,100-12.612E,120.4,28.593,31.8614,176,161
169,2005/1/24,16:47:00, 10-53.759N,100-12.796E,119.9,28.591,31.862,174,161
170,2005/1/24,16:48:00, 10-53.650N,100-12.980E,120.8,28.592,31.8624,171,161
171,2005/1/24,16:49:00, 10-53.541N,100-13.166E,121.6,28.598,31.8629,177,161
172,2005/1/24,16:50:00, 10-53.433N,100-13.353E,120,28.604,31.864,173,161
173,2005/1/24,16:51:00, 10-53.326N,100-13.539E,119.5,28.599,31.8648,175,161
174,2005/1/24,16:52:00, 10-53.219N,100-13.724E,119,28.601,31.8661,174,161
175,2005/1/24,16:53:00, 10-53.110N,100-13.909E,119.6,28.599,31.8664,175,161
176,2005/1/24,16:54:00, 10-53.002N,100-14.093E,121,28.595,31.8676,175,161
177,2005/1/24,16:55:00, 10-52.896N,100-14.278E,121.1,28.595,31.8683,176,161
178,2005/1/24,16:56:00, 10-52.788N,100-14.462E,119.5,28.596,31.8692,176,161
179,2005/1/24,16:57:00, 10-52.679N,100-14.647E,120.9,28.599,31.87,179,161
180,2005/1/24,16:58:00, 10-52.574N,100-14.832E,120.7,28.602,31.8711,177,161
181,2005/1/24,16:59:00, 10-52.465N,100-15.016E,121.6,28.606,31.8725,179,161
182,2005/1/24,17:00:00, 10-52.359N,100-15.200E,120.5,28.612,31.8733,176,161
183,2005/1/24,17:01:00, 10-52.252N,100-15.385E,121.2,28.61,31.8742,178,161
184,2005/1/24,17:02:00, 10-52.144N,100-15.569E,119.2,28.61,31.8755,176,161
185,2005/1/24,17:03:00, 10-52.038N,100-15.754E,119.2,28.611,31.8762,179,161
186,2005/1/24,17:04:00, 10-51.931N,100-15.938E,119.3,28.616,31.8769,176,161
187,2005/1/24,17:05:00, 10-51.824N,100-16.122E,120.5,28.621,31.8786,162,161
188,2005/1/24,17:06:00, 10-51.718N,100-16.308E,121.3,28.621,31.8805,177,161
189,2005/1/24,17:07:00, 10-51.611N,100-16.493E,120.5,28.621,31.8816,174,161
190,2005/1/24,17:08:00, 10-51.503N,100-16.678E,120.5,28.618,31.8827,171,161
191,2005/1/24,17:09:00, 10-51.395N,100-16.861E,120.2,28.617,31.8833,176,161
192,2005/1/24,17:10:00, 10-51.288N,100-17.045E,120.3,28.614,31.885,176,161
193,2005/1/24,17:11:00, 10-51.181N,100-17.229E,120.4,28.615,31.8856,177,161
194,2005/1/24,17:12:00, 10-51.076N,100-17.412E,121.7,28.614,31.8865,175,161
195,2005/1/24,17:13:00, 10-50.969N,100-17.596E,121.3,28.619,31.8874,176,161
196,2005/1/24,17:14:00, 10-50.862N,100-17.780E,120.5,28.614,31.8886,176,161
197,2005/1/24,17:15:00, 10-50.754N,100-17.966E,119.7,28.612,31.8894,176,161
198,2005/1/24,17:16:00, 10-50.647N,100-18.152E,120.4,28.612,31.8884,177,161
199,2005/1/24,17:17:00, 10-50.538N,100-18.337E,120.3,28.611,31.8884,179,161
200,2005/1/24,17:18:00, 10-50.430N,100-18.522E,120.5,28.62,31.8885,179,161
201,2005/1/24,17:19:00, 10-50.324N,100-18.707E,121.3,28.623,31.8897,176,161
202,2005/1/24,17:20:00, 10-50.217N,100-18.891E,121.1,28.627,31.8909,178,161
203,2005/1/24,17:21:00, 10-50.111N,100-19.074E,119.8,28.625,31.8917,178,161
204,2005/1/24,17:22:00, 10-50.004N,100-19.260E,118.2,28.626,31.8921,176,161
205,2005/1/24,17:23:00, 10-49.898N,100-19.444E,119.4,28.634,31.8925,176,161
206,2005/1/24,17:24:00, 10-49.792N,100-19.629E,119.4,28.637,31.8934,176,161
207,2005/1/24,17:25:00, 10-49.683N,100-19.814E,120.6,28.643,31.8954,177,161
208,2005/1/24,17:26:00, 10-49.575N,100-19.999E,122.3,28.641,31.8959,177,161
209,2005/1/24,17:27:00, 10-49.467N,100-20.184E,121.5,28.639,31.8974,178,161
210,2005/1/24,17:28:00, 10-49.361N,100-20.368E,121.2,28.641,31.8971,176,161
211,2005/1/24,17:29:00, 10-49.254N,100-20.552E,121.5,28.64,31.8982,177,161
212,2005/1/24,17:30:00, 10-49.146N,100-20.738E,121.2,28.642,31.899,169,161
213,2005/1/24,17:31:00, 10-49.039N,100-20.923E,120.7,28.646,31.9008,194,161
214,2005/1/24,17:32:00, 10-48.932N,100-21.107E,121.6,28.653,31.9013,182,161
215,2005/1/24,17:33:00, 10-48.825N,100-21.292E,120,28.656,31.9037,180,161
216,2005/1/24,17:34:00, 10-48.717N,100-21.476E,119.6,28.654,31.9052,176,161
217,2005/1/24,17:35:00, 10-48.611N,100-21.662E,119,28.656,31.9065,170,161
218,2005/1/24,17:36:00, 10-48.501N,100-21.847E,120.7,28.664,31.9077,177,161
219,2005/1/24,17:37:00, 10-48.392N,100-22.031E,120.9,28.665,31.9091,---,161
220,2005/1/24,17:38:00, 10-48.286N,100-22.217E,119.7,28.664,31.91,184,161
221,2005/1/24,17:39:00, 10-48.180N,100-22.402E,120.9,28.675,31.9102,171,161
222,2005/1/24,17:40:00, 10-48.074N,100-22.586E,120.5,28.677,31.9113,176,161
223,2005/1/24,17:41:00, 10-47.965N,100-22.770E,118.6,28.667,31.9123,165,161
224,2005/1/24,17:42:00, 10-47.858N,100-22.955E,120.3,28.66,31.912,163,161
225,2005/1/24,17:43:00, 10-47.750N,100-23.139E,120.8,28.662,31.9115,184,161
226,2005/1/24,17:44:00, 10-47.643N,100-23.324E,119.2,28.66,31.9115,172,161
227,2005/1/24,17:45:00, 10-47.536N,100-23.510E,119.4,28.663,31.9125,181,161
228,2005/1/24,17:46:00, 10-47.428N,100-23.694E,120.3,28.664,31.9117,177,161
229,2005/1/24,17:47:00, 10-47.320N,100-23.878E,120.9,28.66,31.9122,169,161
230,2005/1/24,17:48:00, 10-47.212N,100-24.062E,120.3,28.654,31.9123,180,161
231,2005/1/24,17:49:00, 10-47.105N,100-24.245E,120.4,28.658,31.9118,164,161
232,2005/1/24,17:50:00, 10-46.997N,100-24.429E,121.1,28.661,31.9117,188,161
233,2005/1/24,17:51:00, 10-46.890N,100-24.613E,121.2,28.649,31.9121,179,161
234,2005/1/24,17:52:00, 10-46.783N,100-24.797E,119.4,28.646,31.9113,179,161
235,2005/1/24,17:53:00, 10-46.674N,100-24.980E,120.3,28.651,31.9103,181,161
236,2005/1/24,17:54:00, 10-46.565N,100-25.163E,121,28.647,31.9116,173,161
237,2005/1/24,17:55:00, 10-46.458N,100-25.348E,120.1,28.642,31.9114,174,161
238,2005/1/24,17:56:00, 10-46.351N,100-25.532E,120.9,28.646,31.91,174,161
239,2005/1/24,17:57:00, 10-46.244N,100-25.716E,121.5,28.641,31.9094,176,161
240,2005/1/24,17:58:00, 10-46.137N,100-25.899E,121.4,28.643,31.9087,184,161
241,2005/1/24,17:59:00, 10-46.029N,100-26.083E,121.5,28.643,31.9087,177,161
242,2005/1/24,18:00:00, 10-45.921N,100-26.266E,120.8,28.646,31.9092,176,161
243,2005/1/24,18:01:00, 10-45.812N,100-26.449E,120.8,28.648,31.9105,183,161
244,2005/1/24,18:02:00, 10-45.706N,100-26.632E,121.5,28.651,31.9116,175,161
245,2005/1/24,18:03:00, 10-45.598N,100-26.815E,121.4,28.649,31.9128,178,161
246,2005/1/24,18:04:00, 10-45.492N,100-26.999E,121.3,28.648,31.9138,172,161
247,2005/1/24,18:05:00, 10-45.384N,100-27.182E,122,28.654,31.914,184,161
248,2005/1/24,18:06:00, 10-45.278N,100-27.364E,120.3,28.654,31.9152,175,161
249,2005/1/24,18:07:00, 10-45.170N,100-27.545E,121.2,28.656,31.9161,171,161
250,2005/1/24,18:08:00, 10-45.063N,100-27.727E,120.2,28.661,31.9163,176,161
251,2005/1/24,18:09:00, 10-44.956N,100-27.910E,119.3,28.657,31.9188,181,161
252,2005/1/24,18:10:00, 10-44.849N,100-28.092E,119.6,28.666,31.9195,207,161
253,2005/1/24,18:11:00, 10-44.742N,100-28.274E,120.1,28.673,31.9203,---,161
254,2005/1/24,18:12:00, 10-44.639N,100-28.458E,119.6,28.675,31.9233,180,161
255,2005/1/24,18:13:00, 10-44.536N,100-28.641E,119.9,28.683,31.9258,172,161
256,2005/1/24,18:14:00, 10-44.434N,100-28.827E,118.7,28.682,31.9288,177,161
257,2005/1/24,18:15:00, 10-44.332N,100-29.011E,117.9,28.691,31.9324,179,161
258,2005/1/24,18:16:00, 10-44.231N,100-29.196E,118.2,28.686,31.9357,177,161
259,2005/1/24,18:17:00, 10-44.130N,100-29.382E,117.7,28.706,31.9378,176,161
260,2005/1/24,18:18:00, 10-44.028N,100-29.568E,118.7,28.72,31.9396,177,161
261,2005/1/24,18:19:00, 10-43.926N,100-29.751E,118.5,28.721,31.9457,177,161
262,2005/1/24,18:20:00, 10-43.823N,100-29.935E,118.4,28.718,31.9481,177,161
263,2005/1/24,18:21:00, 10-43.722N,100-30.120E,119.1,28.715,31.9475,176,161
264,2005/1/24,18:22:00, 10-43.623N,100-30.304E,117.9,28.723,31.9471,178,161
265,2005/1/24,18:23:00, 10-43.520N,100-30.487E,118,28.735,31.9486,177,161
266,2005/1/24,18:24:00, 10-43.417N,100-30.673E,118.6,28.744,31.9526,174,161
267,2005/1/24,18:25:00, 10-43.316N,100-30.856E,119.2,28.746,31.9566,177,161
268,2005/1/24,18:26:00, 10-43.213N,100-31.041E,118.8,28.745,31.9598,178,161
269,2005/1/24,18:27:00, 10-43.111N,100-31.226E,118.5,28.747,31.9616,179,161
270,2005/1/24,18:28:00, 10-43.011N,100-31.408E,118.5,28.748,31.9627,179,161
271,2005/1/24,18:29:00, 10-42.908N,100-31.593E,119.4,28.752,31.964,177,161
272,2005/1/24,18:30:00, 10-42.806N,100-31.779E,118.3,28.751,31.9659,175,161
273,2005/1/24,18:31:00, 10-42.705N,100-31.963E,117,28.751,31.9671,175,161
274,2005/1/24,18:32:00, 10-42.604N,100-32.149E,118.1,28.746,31.9667,177,161
275,2005/1/24,18:33:00, 10-42.501N,100-32.332E,119.1,28.736,31.9655,176,161
276,2005/1/24,18:34:00, 10-42.400N,100-32.515E,119.5,28.731,31.964,173,161
277,2005/1/24,18:35:00, 10-42.299N,100-32.698E,119.7,28.729,31.9623,175,161
278,2005/1/24,18:36:00, 10-42.198N,100-32.883E,119.3,28.73,31.9601,176,161
279,2005/1/24,18:37:00, 10-42.095N,100-33.065E,120.2,28.731,31.9583,176,161
280,2005/1/24,18:38:00, 10-41.994N,100-33.249E,120.4,28.734,31.9567,174,161
281,2005/1/24,18:39:00, 10-41.894N,100-33.432E,119.6,28.735,31.9568,175,161
282,2005/1/24,18:40:00, 10-41.793N,100-33.616E,120.1,28.74,31.9561,176,161
283,2005/1/24,18:41:00, 10-41.691N,100-33.799E,123.5,28.719,31.9567,175,161
284,2005/1/24,18:42:00, 10-41.586N,100-33.982E,119,28.7,31.9563,175,161
285,2005/1/24,18:43:00, 10-41.485N,100-34.163E,119.6,28.705,31.952,176,161
286,2005/1/24,18:44:00, 10-41.383N,100-34.345E,119.3,28.711,31.949,174,161
287,2005/1/24,18:45:00, 10-41.281N,100-34.527E,118.5,28.711,31.9496,177,161
288,2005/1/24,18:46:00, 10-41.179N,100-34.711E,119.3,28.714,31.9498,176,161
289,2005/1/24,18:47:00, 10-41.077N,100-34.894E,118.4,28.71,31.9492,174,161
290,2005/1/24,18:48:00, 10-40.975N,100-35.076E,119.2,28.703,31.9489,174,161
291,2005/1/24,18:49:00, 10-40.874N,100-35.260E,118.6,28.712,31.948,177,161
292,2005/1/24,18:50:00, 10-40.773N,100-35.444E,118.8,28.721,31.9474,173,161
293,2005/1/24,18:51:00, 10-40.672N,100-35.627E,118.8,28.728,31.9486,177,161
294,2005/1/24,18:52:00, 10-40.570N,100-35.811E,118.6,28.731,31.9476,176,161
295,2005/1/24,18:53:00, 10-40.469N,100-35.995E,118.9,28.725,31.9456,176,161
296,2005/1/24,18:54:00, 10-40.368N,100-36.178E,118.4,28.722,31.9445,181,161
297,2005/1/24,18:55:00, 10-40.268N,100-36.361E,118.2,28.722,31.9431,175,161
298,2005/1/24,18:56:00, 10-40.168N,100-36.545E,118.5,28.716,31.9397,175,161
299,2005/1/24,18:57:00, 10-40.068N,100-36.729E,118.1,28.71,31.9372,176,161
300,2005/1/24,18:58:00, 10-39.968N,100-36.912E,118.1,28.707,31.9343,177,161
301,2005/1/24,18:59:00, 10-39.868N,100-37.094E,118.2,28.704,31.929,177,161
302,2005/1/24,19:00:00, 10-39.768N,100-37.278E,119.1,28.698,31.9237,176,161
303,2005/1/24,19:01:00, 10-39.669N,100-37.462E,118,28.699,31.9179,175,161
304,2005/1/24,19:02:00, 10-39.565N,100-37.643E,121.1,28.693,31.9103,177,161
305,2005/1/24,19:03:00, 10-39.456N,100-37.820E,122.1,28.681,31.9067,172,161
306,2005/1/24,19:04:00, 10-39.346N,100-37.996E,123,28.677,31.9046,222,161
307,2005/1/24,19:05:00, 10-39.238N,100-38.172E,122.4,28.674,31.8966,166,161
308,2005/1/24,19:06:00, 10-39.129N,100-38.348E,122.2,28.667,31.8946,180,161
309,2005/1/24,19:07:00, 10-39.020N,100-38.527E,122.3,28.66,31.8917,167,161
310,2005/1/24,19:08:00, 10-38.913N,100-38.705E,122.9,28.651,31.888,174,161
311,2005/1/24,19:09:00, 10-38.804N,100-38.883E,122.1,28.642,31.8833,175,161
312,2005/1/24,19:10:00, 10-38.703N,100-39.064E,120.1,28.635,31.8783,162,161
313,2005/1/24,19:11:00, 10-38.602N,100-39.247E,120.4,28.625,31.8753,173,161
314,2005/1/24,19:12:00, 10-38.501N,100-39.429E,119.9,28.61,31.8743,176,161
315,2005/1/24,19:13:00, 10-38.399N,100-39.610E,120,28.606,31.8674,176,161
316,2005/1/24,19:14:00, 10-38.297N,100-39.792E,120.5,28.609,31.8601,173,161
317,2005/1/24,19:15:00, 10-38.195N,100-39.972E,119.9,28.607,31.8581,174,161
318,2005/1/24,19:16:00, 10-38.093N,100-40.156E,119.6,28.598,31.8601,171,161
319,2005/1/24,19:17:00, 10-37.990N,100-40.337E,119.7,28.597,31.8577,173,161
320,2005/1/24,19:18:00, 10-37.892N,100-40.520E,120.7,28.591,31.8531,174,161
321,2005/1/24,19:19:00, 10-37.790N,100-40.701E,118.6,28.58,31.8521,172,161
322,2005/1/24,19:20:00, 10-37.688N,100-40.883E,118.9,28.583,31.8444,170,161
323,2005/1/24,19:21:00, 10-37.586N,100-41.067E,119.3,28.584,31.8359,175,161
324,2005/1/24,19:22:00, 10-37.483N,100-41.249E,115.4,28.583,31.8352,173,161
325,2005/1/24,19:23:00, 10-37.394N,100-41.438E,116.6,28.58,31.8327,172,161
326,2005/1/24,19:24:00, 10-37.303N,100-41.626E,116.5,28.57,31.8303,176,161
327,2005/1/24,19:25:00, 10-37.209N,100-41.813E,115.1,28.564,31.8238,174,161
328,2005/1/24,19:26:00, 10-37.118N,100-42.003E,114.5,28.556,31.8203,172,161
329,2005/1/24,19:27:00, 10-37.026N,100-42.190E,117.7,28.549,31.8165,173,161
330,2005/1/24,19:28:00, 10-36.933N,100-42.377E,115.3,28.544,31.8095,173,161
331,2005/1/24,19:29:00, 10-36.840N,100-42.564E,115.9,28.542,31.8083,172,161
332,2005/1/24,19:30:00, 10-36.749N,100-42.751E,116.9,28.541,31.8037,173,161
333,2005/1/24,19:31:00, 10-36.657N,100-42.941E,119.2,28.529,31.8015,171,161
335,2005/1/24,19:33:00, 10-36.468N,100-43.315E,117.4,28.517,31.7946,175,161
336,2005/1/24,19:34:00, 10-36.378N,100-43.500E,116.5,28.51,31.7918,174,161
337,2005/1/24,19:35:00, 10-36.284N,100-43.691E,116.7,28.512,31.7879,164,161
339,2005/1/24,19:37:00, 10-36.103N,100-44.064E,115.8,28.507,31.7853,176,161
340,2005/1/24,19:38:00, 10-36.011N,100-44.253E,117.8,28.502,31.7844,172,161
341,2005/1/24,19:39:00, 10-35.917N,100-44.438E,115.5,28.5,31.7817,183,161
345,2005/1/24,19:43:00, 10-35.536N,100-45.182E,116.8,28.489,31.7668,173,161
346,2005/1/24,19:44:00, 10-35.448N,100-45.372E,117.6,28.48,31.7666,170,161
347,2005/1/24,19:45:00, 10-35.361N,100-45.561E,114.8,28.479,31.7642,162,161
348,2005/1/24,19:46:00, 10-35.277N,100-45.752E,113.9,28.476,31.7618,165,161
351,2005/1/24,19:49:00, 10-35.029N,100-46.328E,113.7,28.463,31.7606,170,161
352,2005/1/24,19:50:00, 10-34.945N,100-46.520E,114.6,28.462,31.7578,176,161
353,2005/1/24,19:51:00, 10-34.862N,100-46.712E,114.3,28.459,31.7557,183,161
354,2005/1/24,19:52:00, 10-34.778N,100-46.905E,113.5,28.456,31.7534,179,161
355,2005/1/24,19:53:00, 10-34.693N,100-47.098E,113.4,28.453,31.7507,167,161
356,2005/1/24,19:54:00, 10-34.608N,100-47.289E,112.1,28.451,31.7481,170,161
357,2005/1/24,19:55:00, 10-34.525N,100-47.482E,112.8,28.448,31.7464,172,161
358,2005/1/24,19:56:00, 10-34.441N,100-47.673E,113,28.439,31.7444,174,161
359,2005/1/24,19:57:00, 10-34.358N,100-47.866E,114,28.431,31.7408,174,161
360,2005/1/24,19:58:00, 10-34.273N,100-48.057E,114.3,28.429,31.737,173,161
361,2005/1/24,19:59:00, 10-34.188N,100-48.247E,117.3,28.421,31.7367,173,161
362,2005/1/24,20:00:00, 10-34.104N,100-48.441E,114.8,28.419,31.7356,169,161
363,2005/1/24,20:01:00, 10-34.021N,100-48.634E,114.2,28.415,31.7317,170,161
364,2005/1/24,20:02:00, 10-33.936N,100-48.827E,113.5,28.409,31.7286,174,161
365,2005/1/24,20:03:00, 10-33.850N,100-49.017E,114.3,28.407,31.728,174,161
366,2005/1/24,20:04:00, 10-33.766N,100-49.209E,114.3,28.402,31.7265,173,161
367,2005/1/24,20:05:00, 10-33.682N,100-49.402E,115.9,28.398,31.7239,173,161
368,2005/1/24,20:06:00, 10-33.597N,100-49.592E,114.6,28.393,31.7213,174,161
369,2005/1/24,20:07:00, 10-33.512N,100-49.783E,114.2,28.389,31.72,174,161
370,2005/1/24,20:08:00, 10-33.428N,100-49.975E,113.3,28.386,31.7173,174,161
371,2005/1/24,20:09:00, 10-33.344N,100-50.167E,114.3,28.383,31.7156,170,161
372,2005/1/24,20:10:00, 10-33.259N,100-50.357E,114.2,28.376,31.7137,173,161
373,2005/1/24,20:11:00, 10-33.174N,100-50.548E,113.7,28.367,31.712,174,161
374,2005/1/24,20:12:00, 10-33.090N,100-50.739E,114.9,28.365,31.7082,173,161
375,2005/1/24,20:13:00, 10-33.004N,100-50.929E,115.3,28.356,31.7065,173,161
376,2005/1/24,20:14:00, 10-32.919N,100-51.119E,115.3,28.355,31.7068,169,161
377,2005/1/24,20:15:00, 10-32.835N,100-51.309E,114.9,28.354,31.7046,172,161
378,2005/1/24,20:16:00, 10-32.750N,100-51.501E,114.4,28.351,31.7033,174,161
379,2005/1/24,20:17:00, 10-32.665N,100-51.693E,113.5,28.35,31.7014,172,161
380,2005/1/24,20:18:00, 10-32.581N,100-51.885E,113.1,28.345,31.6993,162,161
381,2005/1/24,20:19:00, 10-32.495N,100-52.076E,114.5,28.338,31.6974,172,161
382,2005/1/24,20:20:00, 10-32.410N,100-52.267E,114.7,28.334,31.6962,172,161
383,2005/1/24,20:21:00, 10-32.324N,100-52.457E,115.7,28.329,31.6951,174,161
384,2005/1/24,20:22:00, 10-32.239N,100-52.647E,113,28.325,31.6933,176,161
385,2005/1/24,20:23:00, 10-32.153N,100-52.835E,114.6,28.321,31.6925,170,161
386,2005/1/24,20:24:00, 10-32.068N,100-53.027E,115.1,28.32,31.6921,171,161
387,2005/1/24,20:25:00, 10-31.984N,100-53.218E,114.8,28.318,31.6911,172,161
388,2005/1/24,20:26:00, 10-31.899N,100-53.408E,113.7,28.317,31.6911,172,161
389,2005/1/24,20:27:00, 10-31.812N,100-53.598E,115.9,28.32,31.6903,178,161
390,2005/1/24,20:28:00, 10-31.728N,100-53.788E,116.2,28.323,31.6907,182,161
391,2005/1/24,20:29:00, 10-31.645N,100-53.979E,113.3,28.326,31.6924,178,161
392,2005/1/24,20:30:00, 10-31.557N,100-54.167E,113,28.33,31.6936,170,161
393,2005/1/24,20:31:00, 10-31.470N,100-54.359E,116.5,28.333,31.6947,171,161
394,2005/1/24,20:32:00, 10-31.387N,100-54.551E,114.7,28.329,31.6954,179,161
395,2005/1/24,20:33:00, 10-31.302N,100-54.741E,114.8,28.348,31.6961,168,161
396,2005/1/24,20:34:00, 10-31.217N,100-54.932E,115.9,28.362,31.6971,178,161
397,2005/1/24,20:35:00, 10-31.128N,100-55.121E,115.1,28.363,31.698,171,161
398,2005/1/24,20:36:00, 10-31.039N,100-55.310E,114.5,28.36,31.6985,173,161
399,2005/1/24,20:37:00, 10-30.951N,100-55.501E,115.2,28.356,31.698,169,161
400,2005/1/24,20:38:00, 10-30.865N,100-55.690E,113.9,28.351,31.6973,172,161
401,2005/1/24,20:39:00, 10-30.781N,100-55.880E,114.1,28.344,31.6958,171,161
402,2005/1/24,20:40:00, 10-30.697N,100-56.072E,113.2,28.34,31.6959,174,161
403,2005/1/24,20:41:00, 10-30.606N,100-56.260E,115.1,28.338,31.6947,171,161
404,2005/1/24,20:42:00, 10-30.518N,100-56.449E,112.4,28.338,31.6931,173,161
405,2005/1/24,20:43:00, 10-30.431N,100-56.637E,115.5,28.338,31.693,171,161
406,2005/1/24,20:44:00, 10-30.345N,100-56.829E,114.1,28.335,31.693,172,161
407,2005/1/24,20:45:00, 10-30.258N,100-57.019E,113.7,28.329,31.6935,174,161
408,2005/1/24,20:46:00, 10-30.171N,100-57.210E,114.8,28.328,31.6938,172,161
409,2005/1/24,20:47:00, 10-30.083N,100-57.400E,115.7,28.327,31.6942,173,161
410,2005/1/24,20:48:00, 10-29.995N,100-57.590E,116,28.326,31.6945,172,161
411,2005/1/24,20:49:00, 10-29.907N,100-57.781E,116.9,28.324,31.6963,171,161
412,2005/1/24,20:50:00, 10-29.820N,100-57.971E,115.4,28.322,31.698,172,161
413,2005/1/24,20:51:00, 10-29.733N,100-58.160E,115.4,28.323,31.6996,171,161
414,2005/1/24,20:52:00, 10-29.646N,100-58.352E,115.8,28.324,31.7009,172,161
415,2005/1/24,20:53:00, 10-29.558N,100-58.540E,116.4,28.328,31.7027,172,161
416,2005/1/24,20:54:00, 10-29.469N,100-58.730E,114.6,28.333,31.7055,170,161
417,2005/1/24,20:55:00, 10-29.381N,100-58.923E,113.8,28.344,31.7088,171,161
418,2005/1/24,20:56:00, 10-29.293N,100-59.115E,114.2,28.351,31.7126,172,161
419,2005/1/24,20:57:00, 10-29.206N,100-59.306E,113,28.352,31.7167,178,161
420,2005/1/24,20:58:00, 10-29.120N,100-59.497E,113.9,28.347,31.7179,171,161